Regional Weather Roundup
Issued by NWS Mt. Holly, NJ

Home | Current Version | Previous Version | Text Only | Print | Product List | Glossary On
Versions: 1 2 3 4 5 6 7 8 9 10 11 12 13 14 15 16 17 18 19 20 21 22 23 24 25 26 27 28 29 30 31 32 33 34 35 36 37 38 39 40 41 42 43 44 45 46 47 48 49 50
000
ASUS41 KPHI 040511
RWRPHI

REGIONAL WEATHER ROUNDUP
NATIONAL WEATHER SERVICE MOUNT HOLLY NJ
100 AM EDT MON MAY 04 2015

NOTE:  "FAIR" INDICATES FEW OR NO CLOUDS BELOW 12,000 FEET WITH NO
SIGNIFICANT WEATHER AND/OR OBSTRUCTIONS TO VISIBILITY.

 * = STATION DOES NOT REPORT PRECIPITATION (E.G. RAIN, SNOW, ETC.)
        OR FOG.

NJZ015>026-040600-
SOUTHERN NEW JERSEY

CITY           SKY/WX    TMP DP  RH WIND       PRES   REMARKS
POMONA         CLEAR     54  49  83 SW3       30.17S
RIO GRANDE*    CLEAR     52  45  76 SE7       30.15R
MILLVILLE      CLEAR     49  46  90 CALM      30.17R
WRIGHTSTOWN    CLEAR     53  47  81 S3        30.14S
MOUNT HOLLY    CLEAR     54  44  69 CALM      30.17R
TRENTON        CLEAR     61  38  42 SW3       30.16R

$$
NJZ001>014-040600-
NORTHERN NEW JERSEY

CITY           SKY/WX    TMP DP  RH WIND       PRES   REMARKS
SUSSEX         CLEAR     51  43  74 CALM      30.16R
ANDOVER*         N/A     53  46  77 CALM      30.15R
MORRISTOWN     CLEAR     52  45  76 CALM      30.16R
NEWARK         CLEAR     62  40  44 S3        30.16R
TETERBORO      CLEAR     60  41  49 CALM      30.15R
CALDWELL       CLEAR     55  43  63 CALM      30.16R
SOMERVILLE     CLEAR     51  42  71 CALM      30.14R
ALLAIRE*       CLEAR     57  43  58 SW6       30.17R
TOMS RIVER*    CLEAR     52  46  82 SW3       30.18R

$$
PAZ043-044-047-054-055-060>062-066>071-040600-
EASTERN PENNSYLVANIA

CITY           SKY/WX    TMP DP  RH WIND       PRES   REMARKS
PHILADELPHIA   CLEAR     62  48  60 SW3       30.17R
NORTH PHILA    CLEAR     62  40  44 CALM      30.18R
BLUE BELL      CLEAR     57  46  67 CALM      30.16R
DOYLESTOWN     CLEAR     57  44  62 S5        30.15R
QUAKERTOWN*    CLEAR     54  45  71 CALM      30.17R
POTTSTOWN      CLEAR     59  44  57 CALM      30.17R
LANCASTER      CLEAR     56  43  61 CALM      30.15R
COATESVILLE    CLEAR     59  43  55 SE3       30.18R
READING        CLEAR     59  46  62 CALM      30.15R
ALLENTOWN      CLEAR     55  41  59 CALM      30.15R
MOUNT POCONO   CLEAR     47  37  68 NW3       30.18R
HAZLETON       PTCLDY    63  37  39 CALM      30.19S
WILKES BARRE   PTCLDY    60  35  39 E6        30.14R

$$
DEZALL-MDZ008-012-015-019-020-040600-
DELAWARE AND EASTERN MARYLAND

CITY           SKY/WX    TMP DP  RH WIND       PRES   REMARKS
WILMINGTON     CLEAR     58  52  80 SW3       30.18R
DOVER          CLEAR     59  51  75 S5        30.14R
GEORGETOWN     CLEAR     55  49  80 S3        30.19R
EASTON         CLEAR     60  49  66 CALM      30.21R
PATUXENT       CLEAR     62  46  55 SW10      30.17R
OCEAN CITY     CLEAR     51  49  92 CALM      30.19R
WALLOPS ISLAND CLEAR     60  47  61 SW8       30.19R
CAMBRIDGE      CLEAR     57  50  77 SE3       30.18R
SALISBURY      CLEAR     51  47  86 CALM      30.19R

$$
PAZ001-021-NYZ056-072-MDZ011-DCZ001-040600-
OTHER NEARBY LOCATIONS

CITY           SKY/WX    TMP DP  RH WIND       PRES   REMARKS
HARRISBURG     PTCLDY    58  51  78 E6        30.14R
STATE COLLEGE  CLEAR     58  41  54 CALM      30.15S
WILLIAMSPORT   MOCLDY    56  42  59 CALM      30.13R
BINGHAMTON     PTCLDY    61  36  39 SE5       30.14R
NEW YORK CITY  CLEAR     60  47  61 CALM      30.19R
BALTIMORE      CLEAR     63  44  50 SW5       30.16R
WASHINGTON DC  CLEAR     65  49  56 S3        30.18R

$$



USA.gov is the U.S. government's official web portal to all federal, state and local government web resources and services.